Вернуться в каталог

YUKONGZHE

АктивенСвязьSSO
NORAD 63992·PAYLOAD·🇨🇳 China
Это название спутника еще не подтверждено официальными источниками.

Запущен May 14, 2025 с Jiuquan Satellite Launch Center

Loading…

Ближайшие Пролёты (ближайшие 24 часа)

TLE

СвежийSource: Space-Track

Эпоха: Sep 14, 2026, 22:20 UTC

1 63992U 25100L   26257.93089748  .00012655  00000-0  56485-3 0  9997
2 63992  97.3589 328.8438 0007800   2.3418 357.7853 15.21479642 74258

Отслеживайте YUKONGZHE в реальном времени с AllMySat

Download on the App Store